Regional Weather Roundup
Issued by NWS New Orleans/Baton Rouge, LA

Home | Current Version | Previous Version | Graphics & Text | Print | Product List | Glossary On
Versions: 1 2 3 4 5 6 7 8 9 10 11 12 13 14 15 16 17 18 19 20 21 22 23 24 25 26 27 28 29 30 31 32 33 34 35 36 37 38 39 40 41 42 43 44 45 46 47 48 49 50
112
ASUS44 KLIX 190010
RWRLIX
NEW ORLEANS REGIONAL WEATHER ROUNDUP
NATIONAL WEATHER SERVICE NEW ORLEANS LA
600 PM CST THU DEC 18 2014

NOTE: "FAIR" INDICATES FEW OR NO CLOUDS BELOW 12,000 FEET WITH NO
      SIGNIFICANT WEATHER AND/OR OBSTRUCTIONS TO VISIBILITY.
      SKY/WX - SKY CONDITION AND SIGNIFICANT WEATHER.
      TMP - AIR TEMPERATURE.     DP    - DEWPOINT TEMPERATURE.
      RH  - RELATIVE HUMIDITY.   PRES  - PRESSURE.
      HI  - HEAT INDEX.          WCI   - WIND CHILL INDEX.

*  THESE STATIONS ARE NOT NWS OR FAA STATIONS AND ARE NOT UNDER
   NWS QUALITY CONTROL.

LAZ038-040-048-061>063-065>067-069-190100-
SOUTHEAST LOUISIANA

CITY           SKY/WX    TMP DP  RH WIND       PRES   REMARKS
N.O. AUDUBON     N/A     64  59  84 MISG        N/A
6HR MIN TEMP:  64; 6HR MAX TEMP:  69;

N.O. INTL ARPT LGT RAIN  63  56  78 E7        30.10R
6HR MIN TEMP:  63; 6HR MAX TEMP:  68; 6HR PCP: TRACE;

N.O. LAKEFRONT CLOUDY    61  55  81 NE12      30.13R
6HR MIN TEMP:  61; 6HR MAX TEMP:  67;

N.O. DOWNTOWN* CLOUDY    63  54  72 NE7       30.12R
6HR MIN TEMP:  63; 6HR MAX TEMP:  68;

SLIDELL        CLOUDY    60  51  72 NE5       30.12S
6HR MIN TEMP:  60; 6HR MAX TEMP:  67;

BATON ROUGE    LGT RAIN  57  55  93 NE7       30.10F
6HR MIN TEMP:  56; 6HR MAX TEMP:  65; 6HR PCP:  0.02;

BOOTHVILLE     CLOUDY    62  57  83 E3        30.10S
6HR MIN TEMP:  62; 6HR MAX TEMP:  69;

BELLE CHASSE   LGT RAIN  61  58  90 E6        30.10R
6HR MIN TEMP:  61; 6HR MAX TEMP:  68; 6HR PCP: TRACE;

BOGALUSA*        N/A     54  50  88 NE6       30.16S
6HR MIN TEMP:  54; 6HR MAX TEMP:  69; 6HR PCP:  0.03;

GALLIANO*      DRIZZLE   64  60  86 MISG      30.10R
6HR MIN TEMP:  64; 6HR MAX TEMP:  71;

NEW ROADS*     CLOUDY    54  54  98 NE6       30.10S
6HR MIN TEMP:  54; 6HR MAX TEMP:  60; 6HR PCP:  0.74;

GONZALES*      CLOUDY    60  56  85 NE6       30.11R
6HR MIN TEMP:  60; 6HR MAX TEMP:  68;

HAMMOND*       NOT AVBL
HOUMA*         PTCLDY    63  61  94 SE5       30.10R
PORT FOURCHON* CLOUDY    66  61  82 SE8       30.12R

$$

MSZ070-080>082-190100-
SOUTHERN MISSISSIPPI

CITY           SKY/WX    TMP DP  RH WIND       PRES   REMARKS
MCCOMB         CLOUDY    50  48  93 NE3       30.13S
6HR MIN TEMP:  50; 6HR MAX TEMP:  60; 6HR PCP:  0.26;

GULFPORT       CLOUDY    58  49  72 E3        30.13R
6HR MIN TEMP:  58; 6HR MAX TEMP:  61;

BILOXI         CLOUDY    58  51  77 CALM      30.14R
6HR MIN TEMP:  58; 6HR MAX TEMP:  62;

PASCAGOULA     CLOUDY    58  49  72 CALM      30.14R
6HR MIN TEMP:  57; 6HR MAX TEMP:  68;

STENNIS ARPT*  MOCLDY    57  48  72 CALM      30.13R

$$

COASTAL OBSERVATIONS
LAKE AND NEARSHORE STATIONS

STATION/POSITION TIME  TEMP    WIND        PRES    WAVE
                       AIR SEA DIR/SP/G            HT/PER
                 (UTC) (F)     (DEG/KT/KT) (MB)    (FT/S)
PASCAGOULA       0000   58      70/  3/  4 1020.0
WAVELAND YACHT   0000   58      60/  6/  7 1019.6
GRAND ISLE       0000   65 62  130/  3/  6 1019.6
SOUTHWEST PASS   0000   63                 1019.3
NEW CANAL        0000   62 58   40/  8/  9 1020.0
SHELL BEACH      0000   60 60   60/  9/ 10 1019.2

OFFSHORE STATIONS

STATION/POSITION TIME  TEMP    WIND        PRES    WAVE
                       AIR SEA DIR/SP/G            HT/PER
                 (UTC) (F)     (DEG/KT/KT) (MB)    (FT/S)
64 S DAUPHIN ISL 0000   68 74  120/  6/  8 1018.9    1/ 4

$$




USA.gov is the U.S. government's official web portal to all federal, state and local government web resources and services.